Wind_Speed
3 3 4 3 3 0 4 5 11 7 8 6 1 5 7 9 7 8 10 12 10 8 14 13 11 9 8 8 8 7 6 6 5 5 4 3 3 2 2 2 3 3 3 3 3 2 2 2 2
6 5 5 3 2 10 8 11 7 6 7 3 2 4 7 5 10 12 10 8 12 14 16 14 12 10 9 9 9 9 10 9 8 7 7 7 6 5 4 3 2 1 0 0 1 0 0 1 1
7 5 6 5 4 6 7 9 11 16 5 4 4 11 4 6 4 7 8 12 14 15 16 14 11 10 9 10 10 11 12 12 11 10 9 9 9 9 8 8 7 6 5 4 3 3 2 3 3
8 8 8 7 4 3 12 11 12 15 15 8 8 7 8 9 9 3 6 11 13 13 13 12 11 10 10 11 11 11 13 13 13 13 12 11 11 11 11 11 11 10 9 8 7 7 6 6 5
9 9 9 8 5 6 13 13 11 10 11 6 6 11 7 11 7 6 8 12 14 14 14 14 14 14 13 11 10 11 12 13 14 14 14 14 13 13 14 14 13 13 13 13 12 11 11 10 9
11 14 8 8 2 1 18 15 15 13 10 8 5 13 10 11 9 10 12 13 14 14 13 14 14 14 13 11 11 10 11 12 13 14 14 14 13 13 15 16 17 16 16 16 16 15 15 14 14
13 14 10 9 3 9 16 19 15 13 8 11 10 10 13 11 15 15 15 16 15 16 17 17 17 15 14 14 15 14 13 13 14 14 14 13 13 14 15 16 17 18 19 19 20 19 19 19 19
17 15 9 6 8 5 20 17 13 14 14 9 10 12 15 16 17 17 17 15 14 17 19 20 20 20 18 18 19 19 20 18 17 15 14 14 13 14 14 16 17 18 19 21 22 23 23 23 22
19 15 6 3 5 16 20 17 18 19 19 11 9 11 13 17 20 19 19 19 20 19 18 20 23 24 24 23 24 23 22 21 20 19 19 18 18 18 16 16 18 19 21 21 22 24 26 27 27
20 19 6 4 3 15 15 14 14 18 20 21 17 13 15 18 21 23 23 23 24 26 24 23 24 24 25 26 27 27 27 25 25 23 23 22 24 23 22 22 22 22 23 27 27 27 28 29 30
20 21 14 7 6 12 13 16 13 18 18 18 21 22 21 22 24 27 26 25 25 26 27 26 25 27 28 29 29 30 31 30 30 29 28 26 26 23 25 26 29 26 28 30 29 30 31 29 30
18 15 13 12 11 14 14 16 17 19 18 16 22 22 22 22 22 25 25 26 25 24 25 27 27 26 28 29 31 32 33 34 34 34 33 32 32 30 30 29 30 28 27 28 31 32 31 30 30
19 15 14 19 19 15 18 18 16 21 23 24 24 22 24 26 27 31 30 29 27 25 26 26 25 25 24 26 27 30 33 35 36 37 36 35 34 35 33 34 34 33 29 31 32 32 32 32 31
18 20 21 25 26 23 20 20 25 22 24 27 30 29 28 30 30 33 29 25 26 27 24 23 24 25 24 24 26 27 28 29 31 33 34 35 36 36 37 35 37 39 41 42 42 39 38 37 37
27 26 25 22 24 27 21 23 25 24 27 30 33 31 29 26 26 29 27 23 26 25 25 25 24 23 22 23 23 24 25 26 27 28 30 33 36 38 40 42 43 44 46 46 46 43 42 39 38
29 31 33 30 25 28 28 33 25 18 27 28 30 31 27 24 29 30 26 26 26 24 23 23 23 21 21 21 21 22 24 25 26 26 27 29 32 36 40 42 44 45 48 48 47 47 43 42 42
25 32 35 33 28 29 33 37 23 24 30 33 29 25 24 28 28 30 28 28 26 22 21 22 21 21 21 21 22 24 25 25 25 26 27 28 30 32 35 38 42 45 46 46 48 47 46 46 45
36 30 31 26 17 20 26 33 31 23 24 22 24 25 26 26 31 33 32 30 32 27 22 20 21 20 21 21 23 23 25 24 26 27 28 29 31 33 34 35 37 39 43 43 38 46 45 45 47
29 20 28 26 20 18 23 28 34 26 19 25 27 28 27 31 35 34 31 30 33 28 24 22 21 20 20 21 23 23 23 23 24 26 27 29 31 33 35 37 39 41 40 40 38 42 45 46 47
31 32 33 28 26 21 21 30 30 27 25 29 31 30 31 35 38 36 33 31 32 28 25 21 21 20 18 18 17 18 19 19 21 22 24 23 25 28 30 34 37 39 40 41 41 41 39 39 41
33 33 29 27 19 19 21 31 32 31 26 30 35 33 32 35 36 37 37 32 32 28 23 24 21 18 16 16 17 18 20 22 25 26 29 30 30 31 31 31 32 33 35 38 39 40 40 39 38
35 31 29 26 27 27 22 16 30 31 37 37 36 41 40 38 37 37 35 28 28 24 24 22 20 19 18 17 17 19 20 21 23 25 28 29 30 31 32 33 32 32 32 34 36 37 39 41 39
31 26 24 23 29 27 29 15 26 31 35 35 38 38 38 41 39 40 34 29 23 24 22 21 20 17 16 17 19 21 22 24 26 27 27 27 29 31 31 33 33 33 32 32 32 35 40 40 41
11 22 25 24 25 18 25 21 40 31 38 37 39 42 41 38 40 43 32 23 21 23 19 19 19 17 18 19 20 21 22 23 25 25 26 27 29 30 31 32 32 33 33 32 30 32 32 34 39
34 29 7 6 6 11 17 19 51 15 26 30 34 39 39 38 41 41 32 23 22 20 21 19 20 19 19 19 20 21 23 25 25 25 26 28 30 31 31 31 31 32 32 31 30 29 29 30 33
32 39 19 8 6 11 22 19 34 35 33 35 31 25 28 36 41 36 33 23 19 22 20 20 20 20 20 20 20 22 24 25 26 27 28 30 30 30 30 30 30 30 28 28 28 27 28 31 36
42 42 45 25 6 3 13 26 31 33 29 32 38 33 27 28 35 35 31 23 19 21 21 21 21 20 21 22 23 25 25 26 26 27 29 30 29 27 28 29 29 26 23 21 21 24 25 28 27
42 34 23 26 14 17 13 23 23 19 20 23 24 25 24 28 35 34 28 22 19 19 22 23 22 21 23 24 27 27 27 28 27 28 30 30 28 26 26 26 24 20 15 15 16 17 20 22 18
40 40 31 31 35 16 15 19 35 35 28 22 23 24 25 31 29 30 26 22 17 18 21 23 23 24 26 27 27 27 28 28 27 28 29 29 26 25 23 23 20 17 14 12 13 16 16 16 13
32 42 44 26 23 32 28 29 11 16 21 19 20 22 25 27 26 28 27 19 15 17 17 19 22 25 27 28 27 27 29 26 26 27 27 27 24 23 20 21 19 17 18 14 15 18 18 16 15
Wind_Direction
237 224 223 235 260 345 93 100 163 158 225 58 257 219 230 137 161 153 158 168 173 196 192 195 194 194 212 232 239 244 248 238 226 213 206 186 163 139 115 92 80 79 87 85 76 60 24 355 327
227 221 225 233 158 82 97 149 163 129 149 161 225 156 205 181 119 150 152 171 190 195 197 197 198 200 217 239 255 266 271 268 263 248 235 229 226 221 220 217 227 248 286 141 130 114 285 266 277
223 207 211 190 144 111 111 116 127 133 170 212 171 175 195 262 232 173 163 164 182 191 192 196 201 209 225 244 254 264 273 277 275 269 260 251 247 245 245 244 239 240 252 265 271 274 270 262 262
220 199 211 190 174 347 167 143 150 160 164 195 200 168 151 205 242 214 179 173 188 192 187 193 202 215 228 239 249 261 270 274 274 271 265 258 255 257 256 256 255 252 249 255 264 268 274 276 268
211 199 202 200 162 152 168 153 165 187 211 194 188 161 191 178 242 244 205 193 184 198 197 197 204 213 225 238 252 267 277 282 280 276 271 267 260 258 261 263 263 265 264 260 259 263 268 271 271
204 200 210 215 116 46 191 190 191 189 191 170 174 171 176 167 199 224 232 211 204 209 217 228 234 237 239 240 247 262 272 276 280 285 285 284 279 271 267 265 263 261 263 266 267 266 266 268 268
212 211 218 234 188 181 179 191 203 221 198 154 162 180 183 185 207 227 238 242 228 225 232 238 243 247 253 264 276 271 256 258 267 273 277 281 284 285 283 280 274 270 266 265 264 264 263 263 265
205 222 236 244 271 265 191 197 204 196 198 171 171 199 201 218 240 255 266 265 251 251 246 248 252 255 258 259 259 263 273 273 266 252 256 266 275 282 287 289 283 273 267 264 263 263 264 264 263
209 222 233 272 307 178 178 203 190 196 209 208 215 193 222 243 252 257 270 281 282 275 272 266 260 260 262 263 264 265 264 267 276 261 259 254 256 260 264 270 275 280 283 279 276 271 265 265 262
207 221 180 132 155 170 185 204 208 206 210 213 227 225 229 242 257 264 269 275 283 286 282 280 276 271 266 263 263 265 266 265 268 268 271 271 270 266 265 267 263 266 276 282 284 278 270 264 266
213 217 196 201 189 196 191 191 194 213 206 228 241 244 246 246 251 262 269 278 283 282 283 276 268 266 266 266 264 263 262 262 262 265 268 270 269 273 271 272 269 269 270 275 274 275 274 269 264
228 214 215 246 235 215 205 199 200 199 228 226 243 248 258 266 268 266 271 280 277 273 274 276 275 268 265 264 265 265 266 265 264 264 267 269 271 269 271 273 257 254 268 270 272 267 266 265 262
223 219 236 250 252 237 231 234 217 223 218 228 237 243 250 261 268 274 279 283 283 283 283 280 280 279 275 272 269 266 265 266 268 270 270 268 266 268 268 269 272 269 275 279 277 271 271 269 269
212 229 225 238 245 253 240 243 240 233 237 238 242 247 250 256 266 273 279 282 287 289 285 281 282 282 280 277 275 274 272 271 270 270 270 271 270 269 270 265 267 265 268 275 278 276 276 273 271
217 229 228 222 238 247 257 253 244 235 240 243 249 253 255 262 268 276 282 296 299 292 287 286 285 282 280 278 277 275 275 274 273 272 270 268 268 266 264 265 267 266 269 271 271 270 270 271 272
232 237 236 231 236 247 255 257 257 241 239 246 250 251 258 264 282 291 297 311 304 293 289 288 287 287 286 285 285 282 280 278 278 276 273 271 269 268 267 268 266 269 271 270 265 265 266 269 270
239 243 242 249 245 249 241 256 253 236 247 249 253 253 259 276 288 291 293 304 308 297 289 285 284 284 287 289 288 288 286 287 289 288 287 285 281 277 273 271 269 268 267 269 269 267 264 265 267
232 238 248 250 254 257 250 245 252 250 248 237 247 252 267 274 284 286 294 302 309 297 288 285 285 287 289 288 287 287 289 293 291 290 290 291 290 289 287 284 279 274 270 270 267 267 269 263 264
245 247 255 254 232 298 261 249 240 240 222 233 243 251 262 272 271 279 285 294 305 299 294 292 292 295 296 297 298 298 301 303 300 299 298 296 293 292 291 291 291 290 287 284 280 269 264 273 267
248 250 251 253 236 274 257 239 231 234 232 241 252 253 263 276 278 278 278 289 298 296 293 296 297 298 297 296 300 305 307 308 307 306 304 304 304 300 295 291 288 288 288 287 283 278 281 277 275
240 241 247 253 253 266 244 230 233 238 234 244 251 263 262 265 268 272 276 287 295 294 295 298 299 299 301 304 307 308 311 312 310 312 311 311 309 306 304 301 297 291 287 285 284 283 279 275 275
243 237 242 259 262 249 238 246 238 235 230 235 255 263 264 261 260 264 274 277 285 289 297 299 298 299 303 306 309 311 313 314 312 310 306 304 302 302 301 300 299 298 294 286 281 280 279 279 275
249 237 237 257 244 249 248 250 256 236 224 234 245 258 262 264 268 272 268 277 282 295 298 297 296 298 299 302 304 307 309 308 306 304 303 305 308 307 304 299 296 296 296 293 289 281 275 274 272
247 229 241 245 246 246 241 246 260 222 237 248 255 259 256 256 261 262 261 266 288 292 293 291 288 288 292 299 305 309 311 310 308 309 311 310 306 304 302 300 297 293 291 291 295 294 288 279 270
235 232 209 236 213 241 233 227 247 247 243 259 263 260 257 254 256 252 257 261 286 287 291 286 283 284 290 297 304 308 309 308 310 313 314 313 311 308 304 300 297 293 288 289 288 290 286 280 275
230 225 214 202 201 242 235 239 251 261 260 257 258 248 257 251 248 246 248 261 269 280 281 275 274 280 286 293 302 307 308 311 314 317 319 318 313 310 308 305 300 294 292 288 285 288 284 282 283
229 223 229 231 257 206 214 240 257 256 252 240 243 244 239 235 240 235 241 253 260 271 274 270 272 280 288 295 300 304 310 314 318 320 320 318 313 313 310 307 302 299 299 297 297 298 282 291 293
232 227 208 216 225 240 235 232 240 236 233 218 221 226 228 224 226 230 244 245 254 265 270 271 273 282 290 294 298 304 312 317 320 321 319 316 311 312 311 309 306 306 305 314 314 310 300 308 312
224 227 227 228 221 229 250 253 251 246 248 243 234 231 234 227 225 233 242 245 249 261 269 274 278 281 284 289 295 302 310 314 318 318 316 314 309 312 312 308 306 303 301 312 318 319 322 328 341
224 232 223 216 221 224 229 245 259 223 237 230 237 241 232 224 232 237 243 247 255 259 265 281 283 279 280 284 292 300 305 309 314 314 312 309 309 310 311 308 304 294 289 298 309 307 306 307 318
Height
3165 3165 3164 3165 3171 3168 3167 3169 3166 3165 3163 3164 3166 3167 3166 3167 3169 3175 3175 3176 3177 3180 3181 3182 3182 3182 3183 3184 3184 3184 3183 3183 3183 3183 3184 3184 3183 3183 3183 3182 3182 3181 3179 3179 3178 3177 3176 3175 3174
3163 3163 3164 3165 3168 3166 3166 3168 3168 3162 3161 3163 3164 3166 3167 3166 3169 3170 3173 3174 3177 3178 3179 3180 3181 3181 3182 3183 3183 3183 3183 3182 3183 3183 3183 3183 3182 3182 3182 3182 3182 3181 3180 3179 3178 3177 3176 3175 3174
3161 3162 3164 3164 3166 3167 3169 3169 3167 3165 3161 3162 3162 3164 3167 3167 3167 3171 3171 3173 3175 3176 3178 3179 3180 3181 3182 3182 3182 3182 3182 3181 3181 3181 3181 3182 3182 3181 3181 3181 3181 3181 3180 3180 3179 3178 3177 3176 3175
3160 3162 3163 3163 3165 3165 3167 3168 3166 3166 3166 3162 3162 3164 3167 3165 3165 3169 3172 3173 3174 3176 3177 3179 3180 3180 3180 3180 3180 3180 3179 3179 3179 3179 3179 3179 3180 3180 3180 3179 3179 3179 3179 3179 3178 3178 3178 3177 3175
3159 3160 3161 3160 3164 3165 3166 3167 3166 3164 3164 3163 3163 3163 3164 3165 3167 3168 3169 3171 3175 3176 3176 3176 3175 3175 3177 3178 3178 3178 3178 3178 3177 3176 3175 3176 3176 3177 3177 3177 3177 3177 3177 3177 3177 3176 3176 3176 3176
3158 3158 3159 3160 3161 3160 3164 3166 3163 3161 3162 3163 3163 3162 3164 3167 3167 3165 3168 3170 3172 3174 3175 3175 3174 3174 3174 3174 3175 3175 3175 3175 3175 3174 3174 3174 3174 3174 3173 3174 3174 3174 3174 3174 3174 3174 3174 3175 3174
3157 3157 3157 3159 3160 3160 3162 3163 3163 3159 3158 3161 3164 3162 3163 3164 3162 3163 3165 3168 3171 3172 3172 3173 3173 3173 3173 3173 3173 3171 3171 3171 3172 3172 3171 3172 3171 3171 3171 3170 3170 3170 3170 3170 3170 3170 3171 3171 3171
3154 3156 3157 3157 3159 3158 3159 3159 3161 3161 3157 3159 3161 3160 3160 3158 3159 3162 3164 3166 3169 3169 3170 3170 3170 3170 3170 3170 3169 3168 3168 3168 3167 3167 3167 3168 3168 3168 3167 3167 3167 3166 3165 3165 3165 3165 3166 3167 3168
3151 3154 3155 3158 3158 3157 3156 3156 3158 3159 3157 3156 3159 3159 3159 3157 3156 3160 3163 3163 3164 3166 3166 3167 3167 3167 3167 3166 3166 3166 3165 3165 3165 3164 3163 3162 3163 3162 3162 3162 3163 3163 3163 3162 3161 3160 3160 3161 3161
3148 3149 3154 3155 3156 3157 3156 3156 3156 3156 3154 3155 3153 3156 3158 3157 3155 3155 3159 3160 3160 3160 3162 3163 3162 3161 3161 3162 3161 3161 3161 3162 3161 3161 3160 3160 3160 3159 3158 3158 3156 3156 3157 3158 3158 3156 3155 3154 3155
3146 3145 3149 3152 3153 3156 3155 3155 3155 3152 3150 3151 3151 3152 3155 3157 3156 3155 3155 3158 3158 3157 3156 3156 3156 3156 3155 3154 3154 3154 3155 3155 3155 3155 3155 3154 3154 3154 3153 3152 3152 3151 3150 3151 3150 3149 3148 3148 3148
3143 3144 3146 3148 3148 3152 3153 3153 3153 3152 3148 3147 3148 3149 3152 3153 3152 3153 3154 3155 3154 3153 3151 3149 3149 3149 3149 3148 3147 3147 3147 3147 3148 3149 3149 3149 3149 3148 3147 3146 3144 3144 3144 3145 3144 3142 3140 3141 3141
3139 3141 3143 3145 3145 3147 3151 3151 3151 3149 3147 3145 3143 3146 3148 3150 3149 3147 3150 3150 3150 3148 3146 3145 3144 3143 3142 3141 3140 3140 3140 3140 3140 3140 3141 3142 3141 3141 3140 3140 3140 3139 3139 3138 3137 3136 3135 3136 3135
3135 3137 3136 3139 3142 3140 3143 3146 3149 3145 3143 3141 3140 3141 3144 3146 3147 3145 3146 3147 3145 3142 3140 3139 3138 3137 3136 3135 3134 3133 3133 3132 3132 3132 3133 3133 3133 3133 3132 3132 3132 3133 3133 3132 3130 3130 3130 3129 3128
3130 3131 3132 3132 3136 3137 3139 3138 3140 3145 3138 3138 3136 3137 3139 3141 3141 3141 3142 3142 3139 3136 3135 3134 3133 3131 3130 3129 3128 3127 3126 3125 3125 3125 3125 3124 3124 3123 3124 3123 3123 3124 3123 3123 3122 3122 3121 3120 3120
3128 3127 3126 3129 3131 3134 3135 3130 3136 3137 3132 3131 3131 3133 3136 3137 3136 3134 3136 3136 3134 3132 3130 3128 3126 3125 3125 3124 3123 3122 3120 3119 3118 3118 3118 3117 3117 3116 3115 3114 3114 3114 3113 3112 3112 3112 3113 3112 3109
3121 3119 3120 3122 3127 3128 3128 3123 3130 3131 3125 3124 3125 3128 3130 3131 3129 3128 3130 3131 3129 3127 3125 3123 3121 3120 3120 3118 3117 3115 3113 3114 3113 3112 3111 3110 3110 3108 3107 3106 3105 3104 3103 3102 3100 3102 3103 3102 3101
3112 3115 3116 3117 3122 3121 3120 3118 3122 3123 3119 3119 3120 3123 3124 3124 3124 3123 3124 3124 3122 3121 3120 3118 3116 3116 3114 3112 3111 3110 3108 3109 3107 3106 3105 3104 3103 3101 3099 3098 3097 3096 3093 3093 3092 3092 3092 3091 3091
3112 3112 3112 3112 3115 3113 3112 3113 3114 3117 3117 3114 3115 3117 3119 3118 3119 3119 3120 3119 3117 3116 3115 3114 3111 3110 3108 3107 3105 3104 3103 3103 3101 3100 3099 3098 3096 3094 3092 3090 3088 3085 3084 3083 3083 3084 3084 3082 3080
3108 3108 3106 3106 3108 3110 3107 3108 3109 3111 3112 3109 3108 3110 3113 3112 3112 3114 3116 3116 3114 3112 3110 3109 3106 3105 3104 3103 3102 3100 3100 3098 3096 3095 3093 3092 3090 3087 3085 3083 3081 3078 3076 3074 3073 3072 3073 3073 3073
3099 3100 3102 3102 3105 3106 3105 3104 3105 3106 3107 3105 3102 3103 3104 3106 3108 3109 3110 3111 3109 3107 3107 3105 3103 3102 3101 3099 3098 3097 3095 3093 3091 3089 3087 3086 3084 3081 3079 3076 3074 3071 3069 3067 3066 3064 3063 3063 3064
3090 3095 3097 3099 3101 3098 3101 3095 3096 3100 3101 3100 3097 3094 3095 3096 3099 3103 3106 3107 3106 3104 3102 3100 3099 3098 3096 3095 3094 3093 3091 3090 3087 3085 3082 3080 3078 3075 3072 3069 3066 3063 3060 3058 3057 3056 3055 3053 3053
3084 3091 3093 3094 3094 3093 3091 3092 3084 3090 3090 3090 3089 3090 3090 3091 3093 3095 3098 3100 3100 3097 3097 3096 3095 3094 3094 3092 3091 3090 3088 3086 3083 3081 3078 3073 3070 3068 3065 3063 3060 3056 3052 3049 3047 3046 3045 3044 3044
3086 3087 3087 3087 3086 3081 3081 3088 3066 3075 3078 3080 3080 3080 3083 3086 3087 3088 3091 3094 3093 3091 3092 3092 3091 3090 3090 3088 3086 3085 3083 3081 3079 3076 3072 3069 3065 3062 3058 3055 3052 3048 3045 3042 3039 3037 3036 3034 3032
3080 3081 3080 3083 3080 3069 3077 3080 3052 3068 3072 3072 3071 3072 3077 3079 3080 3082 3085 3087 3087 3085 3086 3086 3085 3085 3085 3083 3082 3080 3078 3077 3074 3071 3067 3063 3060 3056 3053 3049 3045 3041 3037 3034 3032 3029 3027 3025 3023
3067 3070 3067 3069 3070 3065 3071 3058 3050 3058 3064 3065 3065 3068 3070 3071 3074 3076 3078 3080 3080 3079 3080 3081 3080 3079 3079 3078 3076 3075 3074 3071 3068 3065 3061 3057 3054 3050 3046 3042 3038 3033 3029 3026 3024 3022 3021 3018 3015
3058 3057 3059 3061 3060 3060 3054 3052 3050 3049 3052 3055 3055 3061 3065 3067 3069 3071 3072 3075 3075 3074 3074 3074 3073 3073 3072 3071 3071 3070 3067 3064 3060 3057 3054 3051 3049 3043 3039 3036 3032 3026 3022 3020 3018 3016 3014 3012 3006
3049 3054 3055 3053 3055 3054 3044 3047 3043 3044 3044 3047 3050 3055 3059 3061 3063 3065 3067 3069 3069 3069 3069 3068 3068 3068 3066 3066 3065 3064 3061 3058 3054 3051 3048 3045 3043 3037 3033 3029 3026 3022 3018 3016 3014 3012 3010 3006 3000
3040 3042 3043 3041 3043 3041 3043 3038 3038 3038 3041 3043 3046 3049 3052 3055 3059 3061 3062 3063 3062 3063 3063 3062 3062 3062 3061 3060 3059 3058 3056 3053 3049 3046 3043 3039 3038 3033 3029 3025 3022 3019 3016 3013 3012 3010 3007 3005 2999
3025 3032 3034 3030 3032 3032 3035 3029 3034 3033 3036 3039 3042 3044 3048 3052 3054 3054 3055 3056 3056 3057 3058 3057 3056 3055 3055 3054 3054 3052 3051 3048 3044 3041 3036 3033 3032 3029 3025 3021 3019 3016 3014 3011 3009 3007 3005 3003 2999